When you browse on this site, cookies collect data to enhance your experience and personalize the content and advertising you see.
Visit our Privacy Policy to learn more. By continuing to use the site, you agree to this use of cookies and data.
  • In Romania
  • List of Countries
  • For 7 days
  • Water Temperature
  • Satellite Maps
  • Weather Map
  • Weather Widgets
  • user-avatar
    Login

    Hourly Weather Krylovo

    Today, 24 March, Sunday

    Time Temperature Precipitation Wind Pressure Humidity
    00:00 -1°C° 0.3 mm 4 mps 744 mmHg 89%
    01:00 -1°C° 0.3 mm 5 mps 744 mmHg 89%
    02:00 -1°C° 0 mm 4 mps 743 mmHg 90%
    03:00 -1°C° 0.7 mm 4 mps 742 mmHg 90%
    04:00 -1°C° 0.7 mm 4 mps 741 mmHg 91%
    05:00 -1°C° 0.7 mm 4 mps 740 mmHg 92%
    06:00 -1°C° 0.1 mm 4 mps 740 mmHg 93%
    07:00 -1°C° 0.1 mm 4 mps 739 mmHg 94%
    08:00 0°C° 0 mm 3 mps 739 mmHg 95%
    09:00 +1°C° 0.1 mm 3 mps 739 mmHg 95%
    10:00 +1°C° 0.1 mm 3 mps 738 mmHg 95%
    11:00 +2°C° 0.1 mm 3 mps 738 mmHg 95%
    12:00 +2°C° 0.1 mm 3 mps 738 mmHg 93%
    13:00 +2°C° 0.1 mm 3 mps 738 mmHg 91%
    14:00 +1°C° 0.1 mm 4 mps 738 mmHg 89%
    15:00 +1°C° 0 mm 3 mps 738 mmHg 89%
    16:00 +1°C° 0 mm 3 mps 738 mmHg 89%
    17:00 +2°C° 0 mm 2 mps 738 mmHg 89%
    18:00 +1°C° 0 mm 2 mps 738 mmHg 90%
    19:00 -1°C° 0 mm 2 mps 738 mmHg 91%
    20:00 -2°C° 0 mm 2 mps 739 mmHg 92%
    21:00 -2°C° 0 mm 2 mps 739 mmHg 92%
    22:00 -3°C° 0 mm 2 mps 739 mmHg 92%
    23:00 -3°C° 0 mm 2 mps 739 mmHg 92%

    Tomorrow, 25 March, Monday

    Time Temperature Precipitation Wind Pressure Humidity
    00:00 -4°C° 0 mm 2 mps 739 mmHg 93%
    01:00 -4°C° 0 mm 2 mps 739 mmHg 93%
    02:00 -4°C° 0 mm 2 mps 739 mmHg 93%
    03:00 -5°C° 0 mm 2 mps 738 mmHg 93%
    04:00 -5°C° 0 mm 2 mps 738 mmHg 93%
    05:00 -5°C° 0 mm 2 mps 738 mmHg 93%
    06:00 -5°C° 0 mm 3 mps 738 mmHg 91%
    07:00 -4°C° 0 mm 3 mps 738 mmHg 88%
    08:00 -2°C° 0 mm 3 mps 738 mmHg 86%
    09:00 -1°C° 0.1 mm 3 mps 738 mmHg 86%
    10:00 -1°C° 0.1 mm 3 mps 738 mmHg 86%
    11:00 0°C° 0.1 mm 3 mps 738 mmHg 86%
    12:00 +1°C° 0.1 mm 3 mps 738 mmHg 85%
    13:00 +1°C° 0.1 mm 3 mps 737 mmHg 83%
    14:00 +2°C° 0.1 mm 3 mps 737 mmHg 82%
    15:00 +2°C° 0.1 mm 3 mps 737 mmHg 85%
    16:00 +2°C° 0.1 mm 2 mps 737 mmHg 87%
    17:00 +2°C° 0.1 mm 2 mps 737 mmHg 89%
    18:00 +1°C° 0 mm 2 mps 737 mmHg 90%
    19:00 -1°C° 0 mm 2 mps 737 mmHg 91%
    20:00 -2°C° 0 mm 2 mps 737 mmHg 92%
    21:00 -2°C° 0 mm 2 mps 737 mmHg 92%
    22:00 -2°C° 0 mm 2 mps 737 mmHg 92%
    23:00 -3°C° 0 mm 2 mps 736 mmHg 91%

    Day after tomorrow, 26 March, Tuesday

    Time Temperature Precipitation Wind Pressure Humidity
    00:00 -3°C° 0 mm 2 mps 736 mmHg 91%
    01:00 -3°C° 0 mm 2 mps 736 mmHg 90%
    02:00 -3°C° 0 mm 2 mps 736 mmHg 89%
    03:00 -3°C° 0 mm 2 mps 735 mmHg 89%
    04:00 -3°C° 0 mm 2 mps 735 mmHg 90%
    05:00 -3°C° 0 mm 2 mps 734 mmHg 90%
    06:00 -4°C° 0 mm 3 mps 734 mmHg 90%
    07:00 -2°C° 0 mm 3 mps 734 mmHg 90%
    08:00 -1°C° 0 mm 3 mps 734 mmHg 90%
    09:00 0°C° 0.1 mm 3 mps 734 mmHg 89%
    10:00 0°C° 0.1 mm 3 mps 734 mmHg 87%
    11:00 +1°C° 0.1 mm 3 mps 734 mmHg 86%
    12:00 +1°C° 0.1 mm 3 mps 734 mmHg 85%
    13:00 0°C° 0.1 mm 3 mps 734 mmHg 84%
    14:00 0°C° 0.1 mm 3 mps 734 mmHg 83%
    15:00 0°C° 0 mm 3 mps 735 mmHg 83%
    16:00 -1°C° 0 mm 3 mps 735 mmHg 83%
    17:00 -1°C° 0 mm 3 mps 735 mmHg 82%
    18:00 -2°C° 0 mm 3 mps 735 mmHg 83%
    19:00 -4°C° 0 mm 3 mps 735 mmHg 84%
    20:00 -5°C° 0 mm 3 mps 736 mmHg 85%
    21:00 -5°C° 0 mm 3 mps 736 mmHg 86%
    22:00 -5°C° 0 mm 3 mps 736 mmHg 86%
    23:00 -5°C° 0 mm 3 mps 736 mmHg 86%

    27 March, Wednesday

    Time Temperature Precipitation Wind Pressure Humidity
    00:00 -5°C° 0.1 mm 3 mps 736 mmHg 87%
    01:00 -5°C° 0.1 mm 4 mps 736 mmHg 89%
    02:00 -5°C° 0.1 mm 4 mps 736 mmHg 90%
    03:00 -5°C° 0.5 mm 4 mps 736 mmHg 90%
    04:00 -5°C° 0.5 mm 4 mps 736 mmHg 90%
    05:00 -5°C° 0.5 mm 5 mps 736 mmHg 89%
    06:00 -5°C° 0.7 mm 5 mps 737 mmHg 89%
    07:00 -5°C° 0.7 mm 6 mps 737 mmHg 88%
    08:00 -5°C° 0.7 mm 6 mps 737 mmHg 88%
    09:00 -4°C° 0.6 mm 6 mps 738 mmHg 87%
    10:00 -4°C° 0.6 mm 6 mps 739 mmHg 86%
    11:00 -3°C° 0.6 mm 6 mps 739 mmHg 86%
    12:00 -3°C° 0.2 mm 6 mps 740 mmHg 86%
    13:00 -2°C° 0.2 mm 6 mps 741 mmHg 85%
    14:00 -2°C° 0.2 mm 6 mps 742 mmHg 85%
    15:00 -1°C° 0.1 mm 5 mps 742 mmHg 85%
    16:00 -1°C° 0.1 mm 5 mps 743 mmHg 84%
    17:00 -1°C° 0.1 mm 5 mps 744 mmHg 84%
    18:00 -2°C° 0.1 mm 5 mps 745 mmHg 85%
    19:00 -2°C° 0.1 mm 5 mps 746 mmHg 85%
    20:00 -4°C° 0.1 mm 5 mps 747 mmHg 86%
    21:00 -4°C° 0 mm 5 mps 748 mmHg 86%
    22:00 -4°C° 0 mm 4 mps 748 mmHg 86%
    23:00 -4°C° 0 mm 4 mps 749 mmHg 86%

    28 March, Thursday

    Time Temperature Precipitation Wind Pressure Humidity
    00:00 -5°C° 0 mm 4 mps 749 mmHg 87%
    01:00 -7°C° 0 mm 4 mps 750 mmHg 89%
    02:00 -8°C° 0 mm 4 mps 751 mmHg 91%
    03:00 -7°C° 0 mm 3 mps 751 mmHg 91%
    04:00 -8°C° 0 mm 3 mps 752 mmHg 91%
    05:00 -8°C° 0 mm 3 mps 752 mmHg 91%
    06:00 -8°C° 0 mm 3 mps 752 mmHg 87%
    07:00 -6°C° 0 mm 2 mps 753 mmHg 84%
    08:00 -5°C° 0 mm 2 mps 753 mmHg 81%
    09:00 -4°C° 0 mm 2 mps 753 mmHg 77%
    10:00 -2°C° 0 mm 3 mps 753 mmHg 74%
    11:00 -1°C° 0 mm 3 mps 753 mmHg 71%
    12:00 -1°C° 0 mm 3 mps 753 mmHg 69%
    13:00 0°C° 0 mm 3 mps 752 mmHg 68%
    14:00 0°C° 0 mm 3 mps 752 mmHg 66%
    15:00 0°C° 0 mm 3 mps 751 mmHg 69%
    16:00 0°C° 0 mm 3 mps 751 mmHg 72%
    17:00 -1°C° 0 mm 2 mps 750 mmHg 75%
    18:00 -1°C° 0 mm 3 mps 750 mmHg 78%
    19:00 -1°C° 0 mm 3 mps 749 mmHg 81%
    20:00 -2°C° 0 mm 4 mps 749 mmHg 83%
    21:00 -2°C° 0.1 mm 4 mps 748 mmHg 84%
    22:00 -2°C° 0.1 mm 4 mps 747 mmHg 86%
    23:00 -2°C° 0.1 mm 4 mps 746 mmHg 87%

    29 March, Friday

    Time Temperature Precipitation Wind Pressure Humidity
    00:00 -1°C° 0.4 mm 5 mps 745 mmHg 87%
    01:00 -1°C° 0.4 mm 5 mps 744 mmHg 88%
    02:00 -1°C° 0.4 mm 6 mps 743 mmHg 88%
    03:00 -1°C° 0.3 mm 6 mps 743 mmHg 86%
    04:00 -1°C° 0.3 mm 6 mps 743 mmHg 84%
    05:00 -1°C° 0.3 mm 6 mps 743 mmHg 81%
    06:00 -2°C° 0 mm 6 mps 743 mmHg 78%
    07:00 -2°C° 0 mm 6 mps 744 mmHg 75%
    08:00 -3°C° 0 mm 6 mps 745 mmHg 72%
    09:00 -2°C° 0 mm 6 mps 745 mmHg 72%
    10:00 -2°C° 0 mm 6 mps 746 mmHg 72%
    11:00 0°C° 0 mm 5 mps 746 mmHg 71%
    12:00 0°C° 0 mm 5 mps 746 mmHg 70%
    13:00 +1°C° 0 mm 5 mps 746 mmHg 70%
    14:00 +1°C° 0 mm 5 mps 746 mmHg 69%
    15:00 +1°C° 0 mm 4 mps 746 mmHg 71%
    16:00 +1°C° 0 mm 3 mps 746 mmHg 74%
    17:00 +2°C° 0 mm 2 mps 746 mmHg 76%
    18:00 +1°C° 0 mm 2 mps 746 mmHg 78%
    19:00 +1°C° 0 mm 2 mps 746 mmHg 80%
    20:00 -1°C° 0 mm 2 mps 746 mmHg 82%
    21:00 -1°C° 0 mm 3 mps 745 mmHg 81%
    22:00 -1°C° 0 mm 3 mps 744 mmHg 80%
    23:00 -1°C° 0 mm 3 mps 744 mmHg 80%
    Show more